Track STARLINK-4462 now! 10-day predictions STARLINK-4462 is classified as:
1 53781U 22111J 24325.79135289 -.00000083 00000-0 12912-4 0 9992 2 53781 53.2184 241.5256 0002247 101.9591 258.1653 15.08844358122152